Jackson, MI

5:06 PM EST on November 16, 2019 (GMT -0500)
Jackson County-Reynolds

Weather History for KJXN - September, 2019

Change the Weather History Date:

Sunday, September 1, 2019

  Actual Average Record
Temperature  
Mean Temperature 64 °F 67 °F  
Max Temperature 70 °F 78 °F 96 °F (1953)
Min Temperature 57 °F 56 °F 41 °F (1967)
Degree Days  
Heating Degree Days 2 2  
Month to date heating degree days 1 2  
Since 1 July heating degree days 14 37  
Cooling Degree Days 0 4  
Month to date cooling degree days 0 4  
Year to date cooling degree days 559 533  
Growing Degree Days 14 (Base 50)    
Moisture  
Dew Point 57 °F    
Average Humidity 80    
Maximum Humidity 93    
Minimum Humidity 70    
Precipitation  
Precipitation 0.16 in 0.12 in 3.04 in (2018)
Month to date precipitation 0.16 0.12  
Year to date precipitation 22.07 21.04  
Sea Level Pressure  
Sea Level Pressure 30.15 in    
Wind  
Wind Speed 4 mph ()    
Max Wind Speed 10 mph    
Max Gust Speed 15 mph    
Visibility 9.6 miles    
Events Rain    
T = Trace of Precipitation, MM = Missing Value Source: Averaged Metar Reports

Daily Weather History Graph

Daily Weather History Graph

Search for Another Location

Airport or City:

Astronomy

Sep. 01, 2019 Rise Set
Actual Time 7:02 AM EDT 8:12 PM EDT
Civil Twilight 6:34 AM EDT 8:40 PM EDT
Nautical Twilight 5:59 AM EDT 9:15 PM EDT
Astronomical Twilight 5:23 AM EDT 9:51 PM EDT
Moon 9:34 AM EDT (9/1) 9:56 PM EDT (9/1)
Length of Visible Light 14h 06m
Length of Day
13h 09m
Waxing Crescent, 8% of the Moon is Illuminated
Sep 1
Waxing Crescent
Sep 5
First Quarter
Sep 14
Full
Sep 21
Last Quarter
Sep 28
New

Hourly Weather History & Observations

Time (EDT) Temp. Dew Point Humidity Pressure Visibility Wind Dir Wind Speed Gust Speed Precip Events Conditions
12:56 AM 60.1 °F 54.0 °F 80% 30.26 in 10.0 mi ENE 3.5 mph - N/A   Mostly Cloudy
1:56 AM 60.1 °F 53.1 °F 78% 30.26 in 10.0 mi NE 4.6 mph - N/A   Overcast
2:56 AM 59.0 °F 51.1 °F 75% 30.25 in 10.0 mi NE 4.6 mph - N/A   Overcast
3:56 AM 59.0 °F 50.0 °F 72% 30.25 in 10.0 mi NNE 4.6 mph - N/A   Mostly Cloudy
4:56 AM 57.9 °F 48.9 °F 72% 30.24 in 10.0 mi NNE 3.5 mph - N/A   Clear
5:56 AM 57.9 °F 50.0 °F 75% 30.23 in 10.0 mi NNE 6.9 mph - N/A   Overcast
6:56 AM 57.0 °F 52.0 °F 83% 30.23 in 10.0 mi NE 4.6 mph - N/A   Overcast
7:56 AM 57.0 °F 53.1 °F 87% 30.23 in 6.0 mi Calm Calm - 0.03 in Rain Light Rain
8:56 AM 57.0 °F 55.0 °F 93% 30.22 in 4.0 mi ENE 5.8 mph - 0.10 in Rain Light Rain
9:56 AM 59.0 °F 55.9 °F 90% 30.20 in 10.0 mi ENE 8.1 mph - 0.03 in Rain Light Rain
10:56 AM 60.1 °F 57.0 °F 90% 30.19 in 10.0 mi East 6.9 mph - 0.00 in   Overcast
11:56 AM 62.1 °F 57.0 °F 84% 30.19 in 10.0 mi East 8.1 mph - N/A   Overcast
12:56 PM 64.0 °F 57.9 °F 80% 30.17 in 10.0 mi East 5.8 mph - N/A   Overcast
1:56 PM 66.0 °F 57.9 °F 75% 30.15 in 10.0 mi East 8.1 mph - N/A   Overcast
2:56 PM 69.1 °F 60.1 °F 73% 30.14 in 10.0 mi East 6.9 mph - N/A   Mostly Cloudy
3:56 PM 69.1 °F 59.0 °F 70% 30.12 in 10.0 mi ESE 8.1 mph - N/A   Partly Cloudy
4:56 PM 69.1 °F 60.1 °F 73% 30.10 in 10.0 mi ESE 6.9 mph - N/A   Mostly Cloudy
5:14 PM 69.1 °F 59.0 °F 70% 30.10 in 10.0 mi ESE 6.9 mph - N/A   Mostly Cloudy
5:56 PM 69.1 °F 60.1 °F 73% 30.10 in 10.0 mi East 5.8 mph - N/A   Overcast
6:56 PM 68.0 °F 60.1 °F 76% 30.08 in 10.0 mi ENE 3.5 mph - N/A   Overcast
7:56 PM 66.9 °F 60.1 °F 79% 30.07 in 10.0 mi ESE 4.6 mph - N/A   Overcast
8:38 PM 66.9 °F 60.1 °F 79% 30.08 in 10.0 mi SE 5.8 mph - N/A   Overcast
8:56 PM 66.0 °F 60.1 °F 81% 30.07 in 10.0 mi Calm Calm - N/A   Overcast
9:56 PM 64.9 °F 61.0 °F 87% 30.08 in 10.0 mi Calm Calm - N/A   Overcast
10:56 PM 64.9 °F 60.1 °F 84% 30.07 in 10.0 mi ESE 3.5 mph - N/A   Overcast
11:47 PM 64.0 °F 60.1 °F 87% 30.07 in 10.0 mi Calm Calm - N/A   Mostly Cloudy
11:54 PM 64.4 °F 60.8 °F 88% 30.07 in 10.0 mi Calm Calm - N/A   Mostly Cloudy
11:56 PM 64.0 °F 60.1 °F 87% 30.06 in 10.0 mi Calm Calm - N/A   Mostly Cloudy